Content
SEND FEEDBACK

Daily
Averages
Monthly
Summary
Canada

MONTREAL, QUEBEC


Home > North America > Canada > Quebec
Elevation: 118 feet     Latitude: 45 28N     Longitude: 073 45W

WEATHER
 
SELECT A DAY
Number of Records: 197,889;   Date Range: 1/1/95 - 7/10/14
 
SHARE

PRINT THIS DATA

[ ← Previous Day ]
WEATHER ALMANAC - JUNE 14, 2013
[ Next Day → ]
[ °C ]   °F
Weather ElementAverageHighLow
Temperature67.7 °F78.8 °F (5:00 pm)55.4 °F (3:00 am)
Dewpoint49.4 °F56 °F (2:00 pm)37.4 °F (9:00 pm)
Humidity54.8 %94 % (3:00 am)23 % (8:00 pm)
Barometer29.77 in29.86 in (11:00 pm)29.69 in (3:00 am)
Wind Speed8.7 mph19.6 mph (6:00 pm)
Wind Gust26.5 mph (7:00 pm)
Weather ElementAverage
Visibility23.7 mi
Wind DirectionSW (220.4 °)

Weather ElementTotal
Precipitation---
Cooling Degree Days2.1 (Base 65)
Growing Degree Days17.1 (Base 50)
Averaged from 27 records on June 14, 2013
WEATHER CONDITIONS BREAKOUT
WIND DIRECTION BREAKOUT
WEATHER BY HOUR - JUNE 14, 2013
[ °C ]   °F
Local TimeTemperatureDewpointHumidityBarometerVisibilityWind DirectionWind SpeedGust SpeedPrecipitationEventsConditions
1:00 AM60.8 °F53.6 °F77 %29.72 in15.0 miCalmMostly Cloudy
2:00 AM58.0 °F55.0 °F87 %29.71 in15.0 miNorth2.3 mphScattered Clouds
2:00 AM59.0 °F55.4 °F88 %29.71 in15.0 miNorth (350°)3.5 mphMostly Cloudy
3:00 AM55.4 °F53.6 °F94 %29.69 in15.0 miWSW (250°)3.5 mphMostly Cloudy
4:00 AM57.2 °F51.8 °F82 %29.70 in15.0 miNW (320°)4.6 mphMostly Cloudy
5:00 AM55.4 °F51.8 °F88 %29.73 in15.0 miNorth (350°)6.9 mphMostly Cloudy
6:00 AM57.2 °F51.8 °F82 %29.75 in30.0 miNorth (360°)5.8 mphScattered Clouds
7:00 AM60.8 °F51.8 °F72 %29.76 in30.0 miNorth (10°)10.4 mphPartly Cloudy
8:00 AM64.0 °F51.0 °F54 %29.77 in28.0 miNNE (20°)10.4 mphScattered Clouds
8:00 AM64.4 °F51.8 °F64 %29.77 in30.0 miNNE (20°)10.4 mphPartly Cloudy
9:00 AM66.2 °F51.8 °F60 %29.79 in30.0 miNNE (20°)9.2 mphMostly Cloudy
10:00 AM69.8 °F53.6 °F56 %29.79 in30.0 miNorth (10°)8.1 mphScattered Clouds
11:00 AM69.8 °F51.8 °F53 %29.80 in30.0 miNorth (10°)12.7 mphScattered Clouds
12:00 PM73.4 °F50.0 °F44 %29.78 in30.0 miNW (320°)9.2 mphScattered Clouds
1:00 PM73.4 °F53.6 °F50 %29.78 in15.0 miSW (230°)5.8 mphMostly Cloudy
2:00 PM74.0 °F56.0 °F43 %29.77 in28.0 miWest (280°)10.4 mphPartly Cloudy
2:00 PM75.2 °F55.4 °F50 %29.77 in30.0 miWNW (290°)10.4 mphMostly Cloudy
3:00 PM77.0 °F53.6 °F44 %29.76 in30.0 miWest (270°)9.2 mphMostly Cloudy
4:00 PM75.2 °F53.6 °F47 %29.76 in15.0 miNW (310°)8.1 mphScattered Clouds
5:00 PM78.8 °F44.6 °F30 %29.75 in30.0 miNW (320°)10.4 mphPartly Cloudy
6:00 PM77.0 °F42.8 °F29 %29.76 in30.0 miWNW (290°)19.6 mphPartly Cloudy
7:00 PM77.0 °F41.0 °F28 %29.78 in30.0 miNW (320°)17.3 mph26.5 mphClear
8:00 PM73.0 °F43.0 °F23 %29.80 in28.0 miNW (310°)11.5 mphScattered Clouds
8:00 PM73.4 °F42.8 °F33 %29.80 in30.0 miNW (310°)10.4 mphClear
9:00 PM69.8 °F37.4 °F31 %29.82 in15.0 miNW (320°)9.2 mphClear
10:00 PM68.0 °F37.4 °F33 %29.84 in15.0 miNNW (330°)9.2 mphClear
11:00 PM64.4 °F37.4 °F37 %29.86 in15.0 miNNW (330°)6.9 mphClear
Hourly data recorded from CYUL, located miles away from Montreal, Quebec







STORIES FROM OUR PARTNERS